Location: Acton
(51.4942°N, 0.2232°W)
Time: 05:56:00
(UTC+00:00)

Cosmos 2297 Rocket - Pass Details

Date: 18 September 2020
Orbit: 838 x 845 km, 71.0° (Epoch: 18 October)

Event Time Altitude Azimuth Distance (km) Brightness Sun altitude
Rises 19:01:53 0° 253° (WSW) 3,393 6.5 -9.2°
Reaches altitude 10° 19:04:45 10° 266° (W) 2,463 6.0 -9.6°
Maximum altitude 19:09:22 25° 321° (NW) 1,638 4.4 -10.3°
Drops below altitude 10° 19:14:02 10° 16° (NNE) 2,476 4.6 -11.0°
Sets 19:16:56 0° 30° (NNE) 3,415 5.2 -11.5°
